Hourly Data Report for February 24, 2019

TORONTO INTL A
ONTARIO
Current Station Operator: NAVCAN

43°40'36.000" N
79°37'50.000" W
173.40 m
6158731
71624
YYZ

Download Data

Hourly Data (February 2019)
Hourly Data Report for February 24, 2019
TIME
LST
Temp Definition
°C
Dew Point Definition
°C
Rel Hum Definition
%
Precip. Amount Definition
mm

Wind Dir Definition
10's deg

Wind Spd Definition
km/h
Visibility Definition
km
Stn Press Definition
kPa
Hmdx Definition


Wind Chill Definition


Weather Definition


00:00 1.9 -0.9 82   9 18 19.3 98.92     Rain
01:00 1.6 -0.8 84   9 16 9.7 98.73     Drizzle, Fog
02:00 1.4 -0.6 87   9 11 4.8 98.55     Drizzle, Fog
03:00 1.9 0.3 89   10 22 4.8 98.36     Rain, Fog
04:00 1.9 0.6 91   10 15 4.8 98.16     Rain, Fog
05:00 2.1 0.9 92   10 23 4.8 97.86     Rain, Fog
06:00 2.4 1.3 93   10 20 4.8 97.58     Rain, Fog
07:00 3.0 1.9 93   13 23 9.7 97.29     Fog
08:00 3.0 2.0 93   12 16 4.0 97.21     Rain, Fog
09:00 3.4 2.3 93   14 14 9.7 97.03     Fog
10:00 4.4 3.3 93   13 19 16.1 96.84     Mostly Cloudy
11:00 4.8 3.7 93   16 12 19.3 96.70     LegendNANA
12:00 5.9 4.8 93   19 16 19.3 96.65     LegendNANA
13:00 5.8 4.0 88   22 47 24.1 96.57     Mostly Cloudy
14:00 3.8 1.3 83   24 53 24.1 96.62     LegendNANA
15:00 2.7 -0.1 82   22 35 9.7 96.76     Rain
16:00 1.9 -0.9 81   23 42 9.7 96.84     Snow Pellets
17:00 2.0 -1.9 75   25 53 24.1 96.93     Snow Showers
18:00 1.8 -3.0 70   25 48 19.3 97.06     Snow Showers
19:00 1.2 -3.8 69   25 59 24.1 97.16     Mostly Cloudy
20:00 0.5 -4.6 69   26 52 9.7 97.23     Snow Showers
21:00 -1.0 -4.9 75   25 45 8.1 97.30   -9 Snow Showers
22:00 -1.7 -5.4 76   27 67 19.3 97.37   -12 Snow Showers
23:00 -2.5 -6.2 76   26 62 16.1 97.44   -12 Snow Showers

Notes on Data Quality.

Legend

  • E = Estimated
  • M = Missing
  • NA = Not Available*
  • [empty] = Indicates an unobserved value
Date modified: